Location: *
(45.8589°N, 4.7139°E)
Time: 13:16:49
(UTC+00:00)

Cosmos 2228 - Visible Passes

Search period start: 06 August 2020 00:00
Search period end: 16 August 2020 00:00
Orbit: 590 x 617 km, 82.5° (Epoch: 05 August)

Date Brightness Start Highest point End Pass type
(mag) Time Alt. Az. Time Alt. Az. Time Alt. Az.
06 Aug 4.7 03:20:22 10° SSE 03:24:18 35° E 03:28:18 10° NNE visible
07 Aug 3.7 03:32:27 10° S 03:36:43 57° E 03:41:02 10° NNE visible
08 Aug 3.1 03:44:49 10° S 03:49:11 88° W 03:53:37 10° N visible
09 Aug 5.8 02:22:08 10° ESE 02:24:39 15° E 02:27:12 10° NE visible
09 Aug 3.3 03:57:27 10° SSW 04:01:43 54° WNW 04:06:03 10° N visible
10 Aug 5.2 02:33:28 10° SE 02:36:57 24° E 02:40:28 10° NE visible
11 Aug 4.4 02:45:17 10° SSE 02:49:18 38° E 02:53:23 10° NNE visible
12 Aug 3.5 02:57:42 12° S 03:01:44 62° E 03:06:05 10° NNE visible
13 Aug 6.0 01:36:54 10° E 01:37:24 10° E 01:37:54 10° ENE visible
13 Aug 3.0 03:10:38 15° SSW 03:14:12 81° W 03:18:38 10° N visible
14 Aug 5.6 01:46:53 10° SE 01:49:39 17° E 01:52:24 10° NE visible
14 Aug 3.3 03:23:31 17° SSW 03:26:45 49° WNW 03:31:03 10° N visible
15 Aug 4.9 01:59:31 16° SE 02:01:56 26° E 02:05:35 10° NNE visible
15 Aug 4.0 03:36:23 15° SW 03:39:22 31° WNW 03:43:19 10° N visible
